WB7OXJ Weather Reports


Display with metric or nautical units.
time (UTC)temp
F
wind
direction
speed
MPH
gust
MPH
rain 1hr
in
rain 24hr
in
rain mn
in
humidity
%
barometer
mb
20260505053040 0 0.0 0.0 0.00 0.03 0.03 1010.6
20260505051538 0 0.0 0.0 0.00 0.03 0.03 1010.6
20260505041515 0 0.0 0.0 0.00 0.03 0.03 1010.4
20260505040007 0 0.0 0.0 0.00 0.03 0.03 1010.1
20260505034503 0 0.0 0.0 0.00 0.03 0.03 1010.1
20260505033059 0 0.0 0.0 0.00 0.03 0.03 1010.0
20260505031555 0 0.0 0.0 0.00 0.03 0.03 1009.9
20260505030051 0 0.0 0.0 0.00 0.03 0.03 1009.9
20260505024551 56 268 3.0 10.0 0.00 0.03 0.03 80 1009.8
20260505023050 57 176 6.0 12.0 0.00 0.03 0.03 79 1009.5
20260505021541 59 240 3.0 12.0 0.00 0.03 0.03 76 1009.5
20260505020039 60 236 6.0 16.0 0.00 0.03 0.03 75 1009.4
20260505014532 61 169 3.0 12.0 0.00 0.03 0.03 73 1009.7
20260505013031 62 180 6.0 15.0 0.00 0.03 0.03 70 1009.6
20260505011533 64 236 2.0 9.0 0.00 0.03 0.03 68 1009.5
20260505010031 64 237 3.0 10.0 0.01 0.03 0.03 67 1009.4
20260505004521 64 237 5.0 14.0 0.03 0.03 0.03 66 1009.5
20260505003020 65 229 5.0 17.0 0.03 0.03 0.03 66 1009.4
20260505001518 65 229 5.0 12.0 0.03 0.03 0.03 65 1009.3
20260505000029 67 178 7.0 12.0 0.02 0.02 0.02 63 1009.3
20260504234515 67 234 3.0 10.0 0.00 0.00 0.00 62 1009.5
20260504233015 68 220 4.0 12.0 0.00 0.00 0.00 60 1009.4
20260504231514 69 188 5.0 15.0 0.00 0.00 0.00 59 1009.4
20260504230014 69 234 4.0 12.0 0.00 0.00 0.00 60 1009.5
20260504224512 69 109 3.0 16.0 0.00 0.00 0.00 57 1009.8
20260504223013 69 224 6.0 11.0 0.00 0.00 0.00 57 1009.7
20260504221527 69 158 5.0 12.0 0.00 0.00 0.00 58 1009.7
20260504220011 69 265 4.0 11.0 0.00 0.00 0.00 59 1009.7
20260504214510 69 220 5.0 10.0 0.00 0.00 0.00 58 1009.8
20260504213008 68 269 3.0 12.0 0.00 0.00 0.00 59 1009.9
20260504211506 68 148 4.0 10.0 0.00 0.00 0.00 62 1010.1
20260504210005 68 227 3.0 9.0 0.00 0.00 0.00 60 1010.2
20260504204502 67 235 4.0 12.0 0.00 0.00 0.00 61 1010.3
20260504203101 67 219 6.0 14.0 0.00 0.00 0.00 64 1010.4
20260504201557 67 173 4.0 8.0 0.00 0.00 0.00 65 1010.2
20260504200055 67 240 3.0 11.0 0.00 0.00 0.00 66 1010.3
20260504194556 0 0.0 0.0 0.00 0.00 0.00 1010.5
20260504193048 0 0.0 0.0 0.00 0.00 0.00 1010.5
20260504191543 0 0.0 0.0 0.00 0.00 0.00 1010.7
20260504190039 0 0.0 0.0 0.00 0.00 0.00 1010.7
20260504184535 0 0.0 0.0 0.00 0.00 0.00 1011.0
20260504183030 0 0.0 0.0 0.00 0.00 0.00 1011.1
20260504181525 0 0.0 0.0 0.00 0.00 0.00 1010.9
20260504180022 0 0.0 0.0 0.00 0.00 0.00 1011.0
20260504174516 0 0.0 0.0 0.00 0.00 0.00 1011.0
20260504173012 0 0.0 0.0 0.00 0.00 0.00 1010.7
20260504171508 0 0.0 0.0 0.00 0.00 0.00 1010.8
20260504081532 0 0.0 0.0 0.00 0.00 0.00 1008.7